Change the Weather History Date:

Tuesday, February 12, 2013

  Actual Average Record
Temperature  
Mean Temperature 29 °F -  
Max Temperature 41 °F 32 °F 48 °F (2005)
Min Temperature 17 °F 16 °F -9 °F (1997)
Degree Days  
Heating Degree Days 36    
Moisture  
Dew Point 23 °F    
Average Humidity 81    
Maximum Humidity 93    
Minimum Humidity 57    
Precipitation  
Precipitation 0.00 in - - ()
Sea Level Pressure  
Sea Level Pressure 29.94 in    
Wind  
Wind Speed 11 mph (WSW)    
Max Wind Speed 20 mph    
Max Gust Speed 26 mph    
Visibility 10 miles    
Events      
Averages and records for this station are not official NWS values.
T = Trace of Precipitation, MM = Missing Value Source: NWS Daily Summary

Daily Weather History Graph

Daily Weather History Graph

Search for Another Location

Airport or City:

Trip Planner

Search our weather history database for the weather conditions in past years. The results will help you decide how hot, cold, wet, or windy it might be!

Date:

Astronomy

Feb. 12, 2013 Rise Set
Actual Time 7:21 AM CST 5:49 PM CST
Civil Twilight 6:52 AM CST 6:18 PM CST
Nautical Twilight 6:19 AM CST 6:51 PM CST
Astronomical Twilight 5:46 AM CST 7:24 PM CST
Moon 8:14 AM CST (2/12) 8:56 PM CST (2/12)
Length of Visible Light 11h 26m
Length of Day
10h 27m
Waxing Crescent, 7% of the Moon is Illuminated
Feb 12
Waxing Crescent
Feb 17
First Quarter
Feb 25
Full
Mar 4
Last Quarter
Mar 11
New

Hourly Weather History & Observations

Time (CST) Temp. Windchill Dew Point Humidity Pressure Visibility Wind Dir Wind Speed Gust Speed Precip Events Conditions
12:15 AM 24.8 °F 14.6 °F 21.2 °F 86% 30.08 in 10.0 mi West 10.4 mph - N/A   Overcast
12:35 AM 24.8 °F 13.4 °F 19.4 °F 80% 30.08 in 10.0 mi West 12.7 mph - N/A   Overcast
12:55 AM 24.8 °F 14.6 °F 21.2 °F 86% 30.08 in 10.0 mi West 10.4 mph - N/A   Overcast
1:15 AM 24.8 °F 16.1 °F 21.2 °F 86% 30.08 in 10.0 mi WSW 8.1 mph - N/A   Overcast
1:35 AM 24.8 °F 15.3 °F 19.4 °F 80% 30.07 in 10.0 mi WSW 9.2 mph - N/A   Mostly Cloudy
1:55 AM 23.0 °F 13.9 °F 19.4 °F 86% 30.07 in 10.0 mi WSW 8.1 mph - N/A   Partly Cloudy
2:15 AM 21.2 °F 12.6 °F 17.6 °F 86% 30.07 in 10.0 mi WSW 6.9 mph - N/A   Clear
2:35 AM 19.4 °F 11.5 °F 17.6 °F 93% 30.07 in 10.0 mi WSW 5.8 mph - N/A   Clear
2:55 AM 19.4 °F 10.4 °F 17.6 °F 93% 30.06 in 10.0 mi SW 6.9 mph - N/A   Clear
3:15 AM 19.4 °F 11.5 °F 15.8 °F 86% 30.05 in 10.0 mi SW 5.8 mph - N/A   Clear
3:35 AM 19.4 °F 10.4 °F 15.8 °F 86% 30.03 in 10.0 mi SW 6.9 mph - N/A   Clear
3:55 AM 17.6 °F 8.2 °F 15.8 °F 93% 30.02 in 10.0 mi SSW 6.9 mph - N/A   Clear
4:15 AM 17.6 °F 7.3 °F 15.8 °F 93% 30.01 in 10.0 mi SSW 8.1 mph - N/A   Clear
4:35 AM 17.6 °F 6.4 °F 15.8 °F 93% 30.01 in 10.0 mi SSW 9.2 mph - N/A   Clear
4:55 AM 17.6 °F 6.4 °F 15.8 °F 93% 30.00 in 10.0 mi SSW 9.2 mph - N/A   Clear
5:15 AM 17.6 °F 6.4 °F 15.8 °F 93% 30.00 in 10.0 mi SSW 9.2 mph - N/A   Clear
5:35 AM 17.6 °F 6.4 °F 15.8 °F 93% 30.01 in 10.0 mi SSW 9.2 mph - N/A   Clear
5:55 AM 17.6 °F 8.2 °F 15.8 °F 93% 30.01 in 10.0 mi SSW 6.9 mph - N/A   Clear
6:15 AM 19.4 °F 7.9 °F 15.8 °F 86% 30.01 in 10.0 mi SSW 10.4 mph - N/A   Clear
6:35 AM 17.6 °F 5.0 °F 15.8 °F 93% 30.00 in 10.0 mi SSW 11.5 mph - N/A   Clear
6:55 AM 19.4 °F 7.2 °F 15.8 °F 86% 30.00 in 10.0 mi SSW 11.5 mph - N/A   Clear
7:15 AM 21.2 °F 9.5 °F 17.6 °F 86% 29.99 in 10.0 mi SW 11.5 mph - N/A   Clear
7:35 AM 21.2 °F 8.3 °F 17.6 °F 86% 30.00 in 10.0 mi SW 13.8 mph - N/A   Clear
7:55 AM 21.2 °F 10.1 °F 17.6 °F 86% 29.99 in 10.0 mi SSW 10.4 mph 17.3 mph N/A   Clear
8:15 AM 23.0 °F 11.7 °F 19.4 °F 86% 29.98 in 10.0 mi SW 11.5 mph - N/A   Clear
8:35 AM 23.0 °F 11.7 °F 19.4 °F 86% 29.97 in - SW 11.5 mph - N/A   Clear
8:55 AM 24.8 °F 14.6 °F 19.4 °F 80% 29.96 in 10.0 mi SW 10.4 mph - N/A   Clear
9:15 AM 26.6 °F 14.7 °F 21.2 °F 80% 29.97 in 10.0 mi SW 15.0 mph - N/A   Clear
9:35 AM 28.4 °F 17.0 °F 21.2 °F 74% 29.96 in 10.0 mi WSW 15.0 mph - N/A   Clear
9:55 AM 26.6 °F 14.3 °F 21.2 °F 80% 29.96 in 10.0 mi WSW 16.1 mph - N/A   Clear
10:15 AM 28.4 °F 18.0 °F 23.0 °F 80% 29.95 in 10.0 mi WSW 12.7 mph - N/A   Clear
10:35 AM 28.4 °F 18.0 °F 23.0 °F 80% 29.94 in 10.0 mi WSW 12.7 mph - N/A   Clear
10:55 AM 30.2 °F 19.3 °F 23.0 °F 75% 29.94 in 10.0 mi WSW 15.0 mph - N/A   Clear
11:15 AM 30.2 °F 18.9 °F 23.0 °F 75% 29.94 in 10.0 mi WSW 16.1 mph - N/A   Clear
11:35 AM 32.0 °F 22.5 °F 24.8 °F 75% 29.93 in 10.0 mi WSW 12.7 mph - N/A   Clear
11:55 AM 32.0 °F 23.0 °F 24.8 °F 75% 29.93 in 10.0 mi WSW 11.5 mph - N/A   Clear
12:15 PM 33.8 °F 24.8 °F 24.8 °F 70% 29.93 in 10.0 mi WSW 12.7 mph - N/A   Clear
12:35 PM 35.6 °F 26.6 °F 26.6 °F 70% 29.92 in 10.0 mi WSW 13.8 mph - N/A   Clear
12:55 PM 37.4 °F 28.2 °F 28.4 °F 70% 29.92 in 10.0 mi SW 16.1 mph - N/A   Clear
1:15 PM 37.4 °F 27.2 °F 26.6 °F 65% 29.91 in 10.0 mi WSW 19.6 mph 26.5 mph N/A   Clear
1:35 PM 37.4 °F 27.5 °F 26.6 °F 65% 29.90 in 10.0 mi West 18.4 mph - N/A   Clear
1:55 PM 37.4 °F 28.5 °F 28.4 °F 70% 29.90 in 10.0 mi WSW 15.0 mph 20.7 mph N/A   Clear
2:15 PM 39.2 °F 30.8 °F 28.4 °F 65% 29.89 in 10.0 mi WSW 15.0 mph 23.0 mph N/A   Clear
2:35 PM 39.2 °F 30.5 °F 26.6 °F 61% 29.88 in 10.0 mi WSW 16.1 mph - N/A   Clear
2:55 PM 39.2 °F 30.8 °F 26.6 °F 61% 29.88 in 10.0 mi West 15.0 mph - N/A   Clear
3:15 PM 41.0 °F 32.8 °F 26.6 °F 57% 29.86 in 10.0 mi West 16.1 mph - N/A   Clear
3:35 PM 41.0 °F 32.8 °F 26.6 °F 57% 29.86 in 10.0 mi West 16.1 mph - N/A   Clear
3:55 PM 41.0 °F 33.9 °F 26.6 °F 57% 29.87 in 10.0 mi West 12.7 mph 18.4 mph N/A   Clear
4:15 PM 41.0 °F 33.5 °F 26.6 °F 57% 29.86 in 10.0 mi West 13.8 mph - N/A   Clear
4:35 PM 39.2 °F 32.0 °F 28.4 °F 65% 29.86 in 10.0 mi West 11.5 mph - N/A   Clear
4:55 PM 39.2 °F 32.0 °F 28.4 °F 65% 29.85 in 10.0 mi West 11.5 mph - N/A   Clear
5:15 PM 37.4 °F 30.3 °F 28.4 °F 70% 29.85 in 10.0 mi West 10.4 mph - N/A   Clear
5:35 PM 35.6 °F 29.2 °F 30.2 °F 81% 29.86 in - WNW 8.1 mph - N/A   Clear
5:55 PM 35.6 °F 28.6 °F 28.4 °F 75% 29.86 in 10.0 mi West 9.2 mph - N/A   Clear
6:15 PM 33.8 °F 26.4 °F 28.4 °F 81% 29.86 in 10.0 mi West 9.2 mph - N/A   Clear
6:35 PM 33.8 °F 25.8 °F 28.4 °F 81% 29.87 in 10.0 mi WNW 10.4 mph - N/A   Clear
6:55 PM 33.8 °F 24.8 °F 26.6 °F 75% 29.87 in 10.0 mi WNW 12.7 mph - N/A   Clear
7:15 PM 32.0 °F 23.0 °F 28.4 °F 87% 29.87 in 10.0 mi NW 11.5 mph - N/A   Clear
7:35 PM 32.0 °F 22.5 °F 26.6 °F 80% 29.87 in 10.0 mi NW 12.7 mph - N/A   Clear
8:15 PM 32.0 °F 22.5 °F 26.6 °F 80% 29.87 in 10.0 mi WNW 12.7 mph - N/A   Clear
8:35 PM 30.2 °F 22.6 °F 26.6 °F 86% 29.86 in 10.0 mi WNW 8.1 mph - N/A   Clear
8:55 PM 30.2 °F 22.6 °F 26.6 °F 86% 29.86 in 10.0 mi WNW 8.1 mph - N/A   Clear
9:15 PM 28.4 °F 20.4 °F 26.6 °F 93% 29.86 in 10.0 mi WSW 8.1 mph - N/A   Clear
9:35 PM 28.4 °F 20.4 °F 26.6 °F 93% 29.86 in 10.0 mi West 8.1 mph - N/A   Clear
9:55 PM 28.4 °F 19.7 °F 26.6 °F 93% 29.85 in 10.0 mi West 9.2 mph - N/A   Clear
10:15 PM 28.4 °F 19.1 °F 26.6 °F 93% 29.85 in 10.0 mi West 10.4 mph - N/A   Clear
10:35 PM 28.4 °F 20.4 °F 24.8 °F 86% 29.84 in 10.0 mi West 8.1 mph - N/A   Clear
10:55 PM 28.4 °F 22.2 °F 24.8 °F 86% 29.84 in 10.0 mi West 5.8 mph - N/A   Clear
11:15 PM 26.6 °F 20.0 °F 24.8 °F 93% 29.84 in 10.0 mi West 5.8 mph - N/A   Clear
11:35 PM 26.6 °F 17.5 °F 24.8 °F 93% 29.83 in 10.0 mi West 9.2 mph - N/A   Clear
11:55 PM 26.6 °F 16.8 °F 24.8 °F 93% 29.84 in 10.0 mi West 10.4 mph - N/A   Clear